| time (UTC) | temp F | wind direction | speed MPH | gust MPH | rain 1hr in | rain 24hr in | rain mn in | humidity % | barometer mb |
| 20260504000009 | 54 | 159 | 1.0 | 5.0 | 0.00 | 0.00 | 0.00 | 50 | 1011.9 |
| 20260503234509 | 55 | 159 | 1.0 | 5.0 | 0.00 | 0.00 | 0.00 | 44 | 1011.8 |
| 20260503233009 | 56 | 159 | 5.0 | 8.0 | 0.00 | 0.00 | 0.00 | 40 | 1011.7 |
| 20260503231608 | 56 | 140 | 1.0 | 3.0 | 0.00 | 0.00 | 0.00 | 40 | 1011.7 |
| 20260503230008 | 57 | 140 | 1.0 | 4.0 | 0.00 | 0.00 | 0.00 | 40 | 1011.7 |
| 20260503224506 | 58 | 144 | 1.0 | 3.0 | 0.00 | 0.00 | 0.00 | 40 | 1011.8 |
| 20260503223006 | 58 | 273 | 0.0 | 3.0 | 0.00 | 0.00 | 0.00 | 38 | 1011.8 |
| 20260503221507 | 59 | 273 | 0.0 | 3.0 | 0.00 | 0.00 | 0.00 | 37 | 1011.8 |
| 20260503220009 | 58 | 276 | 1.0 | 4.0 | 0.00 | 0.00 | 0.00 | 37 | 1012.0 |
| 20260503214501 | 58 | 5 | 3.0 | 6.0 | 0.00 | 0.00 | 0.00 | 38 | 1012.1 |
| 20260503213059 | 57 | 294 | 2.0 | 12.0 | 0.00 | 0.00 | 0.00 | 39 | 1012.1 |
| 20260503211603 | 57 | 233 | 5.0 | 11.0 | 0.00 | 0.00 | 0.00 | 39 | 1012.2 |
| 20260503210056 | 56 | 214 | 10.0 | 19.0 | 0.00 | 0.00 | 0.00 | 40 | 1012.3 |
| 20260503204557 | 55 | 284 | 9.0 | 19.0 | 0.00 | 0.00 | 0.00 | 42 | 1012.5 |
| 20260503203101 | 55 | 281 | 6.0 | 16.0 | 0.00 | 0.00 | 0.00 | 39 | 1012.3 |
| 20260503201600 | 56 | 294 | 4.0 | 14.0 | 0.00 | 0.00 | 0.00 | 37 | 1012.3 |
| 20260503200054 | 56 | 345 | 6.0 | 16.0 | 0.00 | 0.00 | 0.00 | 36 | 1012.2 |
| 20260503194655 | 56 | 271 | 7.0 | 13.0 | 0.00 | 0.00 | 0.00 | 34 | 1012.4 |
| 20260503193051 | 56 | 285 | 6.0 | 12.0 | 0.00 | 0.00 | 0.00 | 34 | 1012.5 |
| 20260503191551 | 56 | 290 | 4.0 | 11.0 | 0.00 | 0.00 | 0.00 | 33 | 1012.5 |
| 20260503190053 | 57 | 178 | 3.0 | 15.0 | 0.00 | 0.00 | 0.00 | 33 | 1012.6 |
| 20260503184603 | 56 | 311 | 3.0 | 16.0 | 0.00 | 0.00 | 0.00 | 34 | 1012.8 |
| 20260503183049 | 55 | 263 | 3.0 | 12.0 | 0.00 | 0.00 | 0.00 | 33 | 1013.0 |
| 20260503181546 | 56 | 289 | 4.0 | 11.0 | 0.00 | 0.00 | 0.00 | 33 | 1013.3 |
| 20260503180040 | 55 | 285 | 8.0 | 13.0 | 0.00 | 0.00 | 0.00 | 33 | 1013.5 |
| 20260503174534 | 53 | 349 | 5.0 | 13.0 | 0.00 | 0.00 | 0.00 | 38 | 1013.7 |
| 20260503173035 | 52 | 51 | 2.0 | 15.0 | 0.00 | 0.00 | 0.00 | 37 | 1014.0 |
| 20260503171540 | 52 | 176 | 4.0 | 16.0 | 0.00 | 0.00 | 0.00 | 36 | 1014.1 |
| 20260503081534 | 35 | 351 | 0.0 | 0.0 | 0.00 | 0.00 | 0.00 | 79 | 1014.6 |
| 20260503071538 | 34 | 351 | 0.0 | 0.0 | 0.00 | 0.00 | 0.00 | 77 | 1014.4 |
| 20260503054522 | 37 | 351 | 0.0 | 1.0 | 0.00 | 0.00 | 0.00 | 74 | 1014.7 |
| 20260503053014 | 37 | 351 | 0.0 | 1.0 | 0.00 | 0.00 | 0.00 | 74 | 1014.9 |
| 20260503051511 | 37 | 351 | 0.0 | 1.0 | 0.00 | 0.00 | 0.00 | 73 | 1015.0 |
| 20260503050010 | 37 | 351 | 0.0 | 0.0 | 0.00 | 0.00 | 0.00 | 73 | 1015.3 |
| 20260503044509 | 37 | 351 | 0.0 | 0.0 | 0.00 | 0.03 | 0.00 | 72 | 1015.4 |
| 20260503043005 | 38 | 351 | 0.0 | 0.0 | 0.00 | 0.03 | 0.00 | 70 | 1015.5 |
| 20260503041502 | 38 | 351 | 0.0 | 0.0 | 0.00 | 0.03 | 0.00 | 70 | 1015.6 |
| 20260503040059 | 39 | 351 | 0.0 | 0.0 | 0.00 | 0.03 | 0.00 | 69 | 1015.6 |
| 20260503034557 | 40 | 351 | 0.0 | 0.0 | 0.00 | 0.03 | 0.03 | 68 | 1015.6 |
| 20260503033057 | 41 | 351 | 0.0 | 0.0 | 0.00 | 0.03 | 0.03 | 67 | 1015.5 |
| 20260503031556 | 41 | 351 | 0.0 | 0.0 | 0.00 | 0.03 | 0.03 | 66 | 1015.4 |
| 20260503030100 | 42 | 351 | 0.0 | 1.0 | 0.00 | 0.03 | 0.03 | 65 | 1015.5 |
| 20260503024555 | 43 | 351 | 0.0 | 2.0 | 0.00 | 0.04 | 0.03 | 62 | 1015.5 |
| 20260503023105 | 43 | 351 | 1.0 | 3.0 | 0.00 | 0.04 | 0.03 | 61 | 1015.5 |
| 20260503021558 | 43 | 5 | 1.0 | 3.0 | 0.00 | 0.04 | 0.03 | 61 | 1015.5 |
| 20260503020058 | 44 | 5 | 1.0 | 4.0 | 0.00 | 0.04 | 0.03 | 60 | 1015.6 |
| 20260503014553 | 44 | 5 | 1.0 | 3.0 | 0.00 | 0.07 | 0.03 | 59 | 1015.5 |
| 20260503013056 | 44 | 5 | 1.0 | 3.0 | 0.00 | 0.07 | 0.03 | 57 | 1015.4 |
| 20260503011614 | 45 | 5 | 0.0 | 4.0 | 0.00 | 0.07 | 0.03 | 56 | 1015.3 |
| 20260503010056 | 45 | 5 | 0.0 | 3.0 | 0.00 | 0.07 | 0.03 | 55 | 1015.2 |
| 20260503004552 | 45 | 5 | 1.0 | 8.0 | 0.00 | 0.09 | 0.03 | 54 | 1015.0 |
| 20260503003052 | 45 | 360 | 1.0 | 5.0 | 0.00 | 0.09 | 0.03 | 53 | 1014.9 |
| 20260503001551 | 46 | 360 | 2.0 | 6.0 | 0.00 | 0.09 | 0.03 | 53 | 1014.8 |